Weather in Khutor-Bor

Russia / Bryansk Oblast     53°06′39″N   34°14′09″E
temp.,
°C
wind,
m/s
gust,
m/s
humid.,
%
clouds,
%
prec.,
mm/h
press.,
hPa
HPBL,
m
20 april, tue
tue2000:00+5ene4989100 0.1 1017587
03:00+5ne3995100 3.4 1016570
06:00+5ene3895100 0.1 1015488
09:00+6ene4994100 0.3 1014638
12:00+7ene4892100 0.9 1013873
15:00+7ene3892100 7.6 1011752
18:00+8ene5986100 0.2 1009749
21:00+5ne4995100 0.2 1009491
21 april, wed
wed2100:00+4nne3897100 0.0 1007429
03:00+3n3697100 0.0 1006445
06:00+3nnw2597100 0.1 1006445
09:00+4wnw3593100 0.1 1008563
12:00+6w3481100 0.1 1009776
15:00+7wsw3577100 0.2 1010851
18:00+6ssw2590100 0.4 1011353
21:00+5s489495 0.6 1013356
22 april, thu
thu2200:00+4ssw3109569 0.3 1013388
03:00+4s3696100 0.3 1014137
06:00+4s3993100 0.0 1015272
09:00+9s477711 0.0 1015436
12:00+13ssw576788 0.4 10151238
15:00+12ssw497530 1.6 1015857
18:00+13ssw59665 1.1 1014712
21:00+9s3118710 1.1 1015275
23 april, fri
fri2300:00+8s31287100 0.1 1015290
03:00+8sse4129076 0.3 1014331
06:00+9s4148675 0.3 1014561
09:00+11s597995 0.6 1015757
12:00+14ssw5116994 0.5 10141453
15:00+12w458291 2.4 1013678
18:00+7nw4689100 0.8 1014571
21:00+5nnw3592100 0.9 1014517
24 april, sat
sat2400:00+4nw3696100 7.0 1013671
03:00+4w3791100 8.4 1013641
06:00+4sw3794100 0.1 1012477
09:00+6wsw477599 0.1 1012772
12:00+8wsw685260 0.1 10121711
15:00+8w6954100 1.1 10122009
18:00+6w596275 0.5 10131374
21:00+3wsw39765 0.5 1014357